{"data":{"norad_id":66025,"intl_designator":"2025-232W","name":"STARLINK-35280","alt_names":[],"object_type":"PAYLOAD","status":"ACTIVE","operator":null,"country":"US","launch_date":"2025-10-16","launch_site_code":"AFETR","launch_vehicle":null,"mission":null,"orbit_class":"UNKNOWN","rcs_meters":null,"size_class":null,"mass_kg":null,"dimensions":null,"purposes":["comms"],"wikipedia_slug":null,"has_3d_model":false,"image_url":null,"decayed_at":null,"tle_current":{"epoch":"2026-05-25T03:15:47.490048Z","epoch_age_seconds":63367,"freshness":"FRESH","line1":"1 66025U 25232W   26145.13596632  .00019189  00000+0  65799-3 0  9992","line2":"2 66025  53.1576 108.5464 0001084  85.2334 274.8790 15.30217148 35146","mean_motion":15.30217148,"eccentricity":0.0001084,"inclination_deg":53.1576,"raan_deg":108.5464,"arg_perigee_deg":85.2334,"mean_anomaly_deg":274.879,"bstar":0.00065799,"rev_number":3514,"period_min":94.104291138162,"perigee_km":474.42097124621,"apogee_km":475.90676687462,"semimajor_km":6853.3008690604,"source":"CELESTRAK","updated_at":"2026-05-25T13:38:21.017805Z"}}}